Regional Weather Roundup
Issued by NWS

Home | Current Version | Previous Version | Graphics & Text | Print | Product List | Glossary On
Versions: 1 2 3 4 5 6 7 8 9 10 11 12 13 14 15 16 17 18 19 20 21 22 23 24 25 26 27 28 29 30 31 32 33 34 35 36 37 38 39 40 41 42 43 44 45 46 47 48 49 50
000
ASUS43 KFSD 281710
RWRSD

WEATHER ROUNDUP FOR SOUTH DAKOTA
NATIONAL WEATHER SERVICE SIOUX FALLS SD
1100 AM CST FRI NOV 28 2014

NOTE: "FAIR" INDICATES FEW OR NO CLOUDS BELOW 12,000 FEET WITH NO
SIGNIFICANT WEATHER AND/OR OBSTRUCTIONS TO VISIBILITY.


SDZ001>005-009-010-012>017-281800-
NORTHWEST AND NORTH CENTRAL SOUTH DAKOTA

CITY           SKY/WX    TMP DP  RH WIND       PRES   REMARKS
BUFFALO          N/A     45  31  58 SE5       29.57S
FAITH            N/A     36  26  67 S10       29.65F
MOBRIDGE       MOSUNNY   24  17  74 SE7       29.70S WCI  16
$$

SDZ012>016-024>037-041>051-057-063-072>074-281800-
SOUTHWEST AND SOUTH CENTRAL SOUTH DAKOTA

CITY           SKY/WX    TMP DP  RH WIND       PRES   REMARKS
RAPID CTY ARPT CLOUDY    54  32  43 CALM      29.68F
PIERRE         PTSUNNY   29  20  69 N5        29.71R WCI  24
CUSTER         MOSUNNY   51  21  30 W9        29.77S
ELLSWORTH AFB  CLOUDY    46  33  58 NW6       29.68F
PHILIP         SUNNY     39  30  70 SE3       29.69F
PINE RIDGE     PTSUNNY   54  28  36 W13       29.75F
SPEARFISH      FAIR      55  28  35 S9        29.69F
WINNER         FAIR      54  29  38 CALM      29.68S
$$

SDZ004>011-016>023-039-040-281800-
NORTHEAST SOUTH DAKOTA

CITY           SKY/WX    TMP DP  RH WIND       PRES   REMARKS
ABERDEEN       CLOUDY    19  13  77 E10       29.79F WCI   7
WATERTOWN      CLOUDY    18  12  77 NE3       29.79S
SISSETON         N/A     12   8  84 S12       29.85F WCI  -2
$$

SDZ017-020-022-023-036>040-048>070-281800-
SOUTHEAST SOUTH DAKOTA

CITY           SKY/WX    TMP DP  RH WIND       PRES   REMARKS
SIOUX FALLS    PTSUNNY   28  23  81 E8        29.79F WCI  20
HURON          MOSUNNY   30  21  69 SE7       29.74F WCI  23
CHAMBERLAIN    MOSUNNY   37  26  63 SE6       29.68F
MITCHELL       MOSUNNY   30  23  75 SE9       29.74F WCI  22
YANKTON        MOSUNNY   34  25  69 E7        29.78S WCI  28
$$

ABBREVIATIONS USED IN REMARKS
   TC - TEMPERATURE IN CELSIUS
  WCI - WIND CHILL INDEX
   HX - HEAT INDEX
  VSB - VISIBILITY



USA.gov is the U.S. government's official web portal to all federal, state and local government web resources and services.